Wetbulb
41.81 36.09 34.82 38.76 39.59 39.53 36.83 35.71 34.13 37.99 41.61 39.08 38.39 39.58 41.45 43.95 40.32 41.97 43.68 43.85 42.90 43.68 47.38 44.42 45.56 45.18 44.44 43.13 40.57 39.44 38.65 38.41 38.85 37.29 35.90 34.71 35.20 33.73 32.56 33.15 34.10 33.45 33.46 33.28
37.95 35.18 40.51 41.22 40.45 39.41 37.94 36.77 36.71 39.69 41.47 38.65 37.46 37.94 40.63 42.33 43.49 41.89 43.78 44.31 45.03 45.56 42.93 43.68 42.53 43.35 43.42 41.38 40.11 39.01 38.78 38.38 39.09 38.64 38.05 34.40 33.37 33.28 32.94 33.30 33.02 33.13 32.59 32.32
37.42 38.92 43.08 41.59 39.40 38.11 38.34 36.10 36.83 36.06 38.04 36.87 35.09 33.22 36.27 40.61 43.09 43.92 44.31 45.37 45.85 45.74 43.40 42.45 41.00 42.32 42.17 40.52 39.51 39.02 38.82 38.14 39.02 37.74 36.04 33.70 33.88 32.01 30.99 31.11 30.99 31.44 32.42 31.74
37.45 42.02 40.72 38.33 37.96 39.80 35.77 38.95 38.28 36.60 32.90 31.50 34.47 29.86 33.69 37.62 39.59 41.30 43.33 43.91 44.36 44.62 41.20 41.70 41.02 40.98 41.19 40.90 40.39 39.63 38.78 37.76 37.95 36.79 36.07 35.40 33.37 33.08 33.53 33.80 31.87 30.61 31.67 30.76
36.66 36.14 36.32 37.05 39.02 39.12 38.01 37.97 37.16 34.33 31.34 30.28 31.47 28.40 31.61 37.15 35.85 38.62 41.97 43.21 45.20 43.85 40.92 39.94 41.20 42.44 41.75 40.91 39.61 38.87 38.07 37.34 37.56 36.31 36.89 35.95 33.98 34.07 30.16 29.81 30.03 31.07 29.86 30.01
37.40 38.51 38.51 38.36 37.24 38.41 38.15 35.46 33.54 31.36 29.57 25.72 30.22 31.32 32.77 31.95 38.00 38.03 41.95 42.14 43.52 41.74 41.50 40.81 41.71 41.37 40.02 38.27 38.80 37.63 36.94 36.89 37.03 36.39 36.40 35.58 33.91 31.33 29.97 30.44 30.34 30.19 29.87 28.87
34.10 36.43 39.32 39.36 35.24 35.56 36.09 33.71 25.21 22.51 21.27 24.44 32.72 29.36 35.58 37.27 38.49 40.46 41.77 42.79 43.50 40.72 40.22 39.04 37.74 38.40 37.57 36.70 37.30 37.43 36.71 36.26 36.69 36.15 35.61 35.26 34.60 32.81 32.09 30.76 31.12 29.58 28.43 27.79
29.67 30.90 35.06 38.05 38.68 35.23 33.55 35.72 27.54 19.81 20.55 28.37 28.10 25.09 32.65 40.39 42.99 40.75 41.08 42.28 39.68 39.56 39.54 38.99 39.32 38.76 37.65 37.58 36.15 37.21 36.35 36.46 35.79 35.89 35.61 35.18 34.39 33.49 33.18 31.45 31.24 30.21 29.92 29.13
30.47 30.95 34.81 34.91 35.84 38.93 32.84 30.12 36.46 29.58 23.14 20.72 31.99 32.58 36.54 37.67 38.33 38.93 39.77 38.69 38.54 38.65 38.23 38.54 37.89 37.17 36.48 36.13 36.29 36.64 36.21 36.33 35.17 35.78 35.83 34.79 33.69 33.74 32.84 31.31 30.27 30.24 28.53 27.60
36.15 31.59 33.61 32.45 33.65 34.37 32.78 34.27 28.66 29.39 21.73 18.12 28.59 26.75 32.82 34.25 39.18 40.48 37.72 37.00 37.80 38.02 38.30 38.78 38.18 37.83 37.26 37.06 37.18 36.44 36.59 35.89 35.53 35.07 35.52 34.72 33.18 33.36 32.80 30.29 28.99 27.54 26.88 25.88
35.33 34.47 32.42 30.66 30.00 30.98 28.89 29.26 30.02 30.80 29.01 26.35 25.03 29.97 35.24 35.61 37.18 38.82 38.62 37.84 37.33 38.05 38.49 38.71 38.89 37.65 37.51 36.99 36.13 35.88 34.96 34.80 34.69 33.80 34.23 34.00 32.54 31.46 29.32 29.55 28.93 27.48 26.25 25.07
36.85 34.09 28.81 31.95 34.15 33.84 34.27 34.28 35.22 29.57 28.40 25.07 27.37 30.40 38.28 39.81 38.96 38.29 36.76 38.64 39.02 39.45 40.37 39.70 38.94 37.04 37.03 37.09 36.36 35.81 35.79 34.67 34.64 34.43 33.07 32.41 30.52 28.42 28.44 28.51 26.89 25.60 25.31 24.19
37.77 31.71 27.09 27.88 32.04 29.17 30.57 31.59 34.85 34.04 30.96 28.67 25.39 29.34 39.88 41.44 38.79 38.65 37.55 38.01 39.08 39.56 40.42 39.20 37.81 36.81 37.83 37.59 36.27 35.97 35.52 34.81 34.21 33.38 31.25 30.69 28.85 28.20 28.00 26.68 25.05 24.99 23.73 23.08
41.47 33.52 31.46 28.65 31.53 33.54 30.40 32.63 32.94 32.11 27.90 28.60 29.46 32.06 37.33 39.76 40.69 42.32 43.02 40.53 40.64 39.92 39.02 39.12 38.15 36.82 36.41 36.62 36.76 36.21 35.67 35.13 33.06 32.18 30.77 29.64 28.89 28.62 27.29 24.83 24.25 23.82 23.23 21.73
38.58 30.60 32.53 33.76 35.37 34.98 34.16 33.55 33.80 32.05 32.39 27.73 29.94 30.64 35.52 38.57 39.78 41.24 42.56 42.41 40.87 40.59 39.69 39.40 38.69 38.22 38.14 36.66 34.94 34.60 34.80 32.50 31.73 31.10 30.28 29.49 28.74 27.70 24.30 23.51 23.58 22.30 21.90 21.41
37.06 31.35 33.45 30.86 33.08 33.29 31.58 33.39 33.83 33.18 32.90 32.90 33.70 32.68 39.37 40.76 41.78 41.23 41.70 41.89 41.09 41.79 42.38 41.69 39.93 38.34 36.17 33.91 35.35 32.95 32.62 31.14 30.82 30.83 29.84 28.72 26.03 23.99 23.42 23.52 22.09 21.62 21.10 20.32
35.11 31.65 30.92 27.39 31.48 31.39 27.31 31.64 32.73 33.61 35.26 34.32 29.28 34.56 39.23 38.78 39.91 40.71 41.69 42.20 41.64 42.14 42.17 39.38 39.71 39.18 36.86 35.30 33.18 31.51 32.18 29.73 29.54 29.74 28.71 25.88 24.37 23.06 22.79 22.10 20.96 20.34 19.81 20.05
32.85 31.63 31.52 28.36 29.75 21.31 30.62 36.75 36.04 34.10 35.15 36.41 36.07 37.74 39.67 40.33 41.70 42.24 42.84 41.99 42.11 42.22 39.99 39.07 37.53 38.08 35.83 33.90 32.64 29.83 27.55 27.51 28.39 26.88 25.06 23.15 22.61 21.62 20.89 20.18 19.88 19.63 19.30 19.18
36.85 33.40 29.64 26.50 26.38 29.81 31.25 32.92 32.38 31.01 31.20 37.04 36.21 38.07 39.45 40.79 40.92 40.39 42.69 40.87 42.25 43.07 43.31 41.69 39.49 36.53 35.14 33.99 30.37 27.49 25.65 26.39 25.63 24.32 22.93 21.59 21.32 20.05 19.39 18.98 18.67 18.68 18.60 18.06
35.90 36.23 31.55 29.44 25.13 22.17 31.81 36.14 39.37 38.14 28.58 30.53 33.31 31.07 31.40 34.09 31.73 35.45 37.44 37.97 36.89 37.46 37.19 35.79 34.12 33.32 32.55 29.94 26.21 25.53 23.72 23.94 24.15 24.11 22.98 21.31 21.28 20.07 18.96 19.16 18.24 18.49 18.53 18.18
26.05 29.00 27.10 27.48 26.08 29.51 29.61 31.72 33.62 26.48 23.12 30.27 32.71 32.16 32.08 30.26 33.08 35.97 36.35 36.08 37.11 33.45 30.65 30.52 29.07 29.54 29.25 25.01 24.44 23.73 22.27 22.84 24.24 22.63 20.92 19.94 20.19 19.63 19.57 18.23 19.22 18.14 17.67 17.35
17.82 17.86 18.93 21.61 24.10 22.29 29.26 29.87 21.92 24.92 28.33 29.48 31.58 30.39 31.22 32.65 33.77 34.95 35.37 34.65 35.02 35.10 35.01 30.14 27.66 26.63 25.03 23.90 23.57 22.22 21.75 22.16 20.31 20.11 19.16 18.72 18.53 19.08 17.61 17.30 17.30 17.20 16.43 14.78
16.42 22.63 16.11 16.42 18.60 24.99 30.21 25.74 28.57 29.54 30.53 31.63 30.89 31.33 30.94 29.94 29.99 31.28 32.95 33.37 34.95 35.74 35.49 32.66 25.98 25.56 23.15 21.82 22.58 21.55 21.42 20.74 18.85 18.05 17.78 16.37 16.85 16.81 16.94 15.84 15.32 14.44 14.45 12.55
17.72 21.54 17.08 15.68 21.73 21.87 24.09 27.23 29.32 28.48 27.32 29.29 30.07 28.63 27.91 26.61 28.01 28.68 29.73 30.86 31.85 33.65 33.97 32.88 25.01 25.15 24.76 21.89 22.91 24.04 21.21 20.55 19.07 17.53 15.84 14.37 14.90 14.55 15.17 16.20 15.11 13.68 12.59 12.33
18.51 20.11 14.50 16.16 20.50 22.46 24.68 26.59 25.97 24.79 26.39 25.28 23.89 23.66 23.89 25.26 25.97 26.96 27.35 28.20 29.95 31.17 32.34 30.72 31.62 30.88 29.70 25.57 23.02 22.02 21.11 19.19 17.34 15.86 14.72 14.08 14.49 13.92 13.19 14.02 13.38 12.95 14.79 15.62
21.23 18.49 15.59 14.10 22.45 19.97 20.59 23.10 23.03 18.76 17.99 18.10 18.87 19.65 20.64 20.33 20.30 21.88 22.41 24.70 26.60 27.87 29.98 30.56 29.22 28.07 28.65 23.76 23.00 21.77 20.66 19.05 17.82 15.05 13.93 13.93 13.40 13.29 12.96 12.37 13.21 18.19 17.88 20.53
MSLP
1014.09 1014.64 1014.22 1012.96 1013.32 1013.11 1013.31 1012.99 1012.40 1011.54 1011.27 1011.52 1011.20 1010.46 1009.68 1008.86 1009.15 1008.95 1008.48 1007.97 1007.74 1007.29 1005.66 1006.53 1007.11 1007.82 1008.91 1010.04 1011.14 1012.17 1013.15 1014.16 1015.13 1016.32 1017.36 1018.19 1018.38 1018.86 1019.25 1019.39 1019.58 1020.00 1020.43 1020.86
1014.19 1013.64 1012.81 1012.81 1013.11 1013.23 1013.17 1012.93 1012.40 1011.40 1010.82 1011.11 1010.55 1009.68 1009.26 1008.70 1007.65 1007.58 1007.27 1006.64 1006.25 1005.84 1005.62 1005.74 1006.30 1007.27 1007.84 1008.76 1009.96 1011.28 1012.15 1013.11 1013.96 1014.89 1015.94 1016.92 1017.65 1018.32 1018.66 1018.98 1019.32 1019.58 1020.00 1020.52
1012.82 1012.23 1012.12 1012.58 1012.89 1013.28 1012.05 1012.29 1011.87 1011.71 1011.41 1010.81 1010.56 1008.97 1008.68 1007.53 1006.58 1006.22 1005.64 1005.19 1004.90 1004.49 1004.75 1005.20 1006.06 1006.50 1007.31 1008.26 1009.00 1010.05 1011.08 1012.21 1013.16 1014.26 1015.52 1016.55 1017.46 1018.08 1018.63 1018.75 1019.11 1019.53 1019.80 1020.22
1012.72 1011.74 1011.72 1012.30 1012.65 1012.54 1011.04 1011.51 1011.43 1011.42 1012.03 1011.32 1010.98 1007.14 1007.45 1006.72 1006.04 1005.45 1004.39 1003.91 1003.56 1003.10 1003.66 1004.24 1005.15 1006.12 1006.51 1006.94 1008.13 1009.24 1010.33 1011.43 1012.39 1013.43 1014.49 1015.25 1015.69 1016.45 1016.69 1017.36 1018.27 1018.75 1019.35 1019.69
1010.98 1011.07 1011.36 1011.54 1010.92 1011.70 1010.41 1011.40 1011.82 1012.22 1012.19 1011.61 1011.12 1010.92 1006.02 1005.74 1005.56 1004.55 1003.47 1002.87 1002.10 1002.32 1002.86 1003.61 1004.12 1004.38 1005.19 1006.35 1007.15 1008.31 1009.47 1010.61 1011.40 1012.39 1013.09 1014.14 1015.08 1015.75 1016.33 1017.05 1017.80 1018.26 1018.95 1019.38
1011.44 1011.34 1011.33 1010.95 1011.10 1011.06 1011.08 1011.70 1012.38 1012.68 1012.94 1011.72 1010.89 1010.44 1001.84 1005.03 1004.11 1003.34 1002.76 1002.07 1001.64 1001.50 1002.04 1002.67 1003.41 1004.30 1005.24 1006.39 1007.39 1008.32 1009.13 1009.98 1010.76 1011.68 1012.46 1013.07 1014.00 1015.10 1016.09 1016.69 1017.32 1017.91 1018.45 1019.00
1011.29 1010.34 1009.93 1010.47 1011.52 1011.71 1011.56 1012.13 1013.21 1013.54 1013.85 1010.72 1008.85 1008.63 1003.17 1003.30 1002.65 1002.04 1001.63 1001.15 1000.64 1001.11 1002.09 1002.88 1003.62 1004.55 1005.44 1006.16 1007.06 1008.05 1008.89 1009.64 1010.40 1011.08 1011.79 1012.42 1013.15 1014.09 1014.87 1015.64 1016.30 1017.18 1017.89 1018.33
1012.09 1010.25 1009.82 1009.50 1009.96 1010.21 1010.67 1010.81 1011.87 1012.08 1012.02 1010.13 1008.63 1006.32 1002.90 1001.27 1000.69 1000.69 1000.45 1000.20 1000.28 1001.04 1001.98 1002.43 1003.14 1003.98 1004.77 1005.56 1006.46 1007.23 1007.99 1008.72 1009.42 1010.17 1010.76 1011.62 1012.45 1013.25 1013.84 1014.55 1015.19 1016.06 1016.68 1017.32
1011.48 1010.29 1009.58 1009.43 1009.51 1009.89 1010.09 1010.48 1009.45 1010.61 1010.27 1009.94 1006.02 1003.80 1001.97 1000.97 1000.65 1000.42 1000.00 999.95 1000.89 1001.18 1001.84 1002.44 1002.98 1003.65 1004.31 1005.19 1005.85 1006.37 1007.23 1007.97 1008.56 1008.94 1009.87 1010.62 1011.42 1012.01 1012.62 1013.45 1014.37 1015.19 1016.01 1016.80
1009.67 1009.88 1009.43 1009.81 1010.00 1009.86 1009.71 1009.99 1010.53 1010.75 1009.96 1008.32 1005.27 1003.53 1001.38 1000.54 1000.35 999.45 999.83 1000.19 1000.70 1001.15 1002.06 1002.37 1002.63 1003.20 1003.91 1004.52 1005.08 1005.90 1006.52 1006.95 1007.69 1008.57 1009.19 1009.78 1010.52 1011.18 1011.72 1012.67 1013.57 1014.43 1015.39 1016.29
1009.98 1010.12 1010.27 1010.58 1009.58 1009.42 1009.94 1009.68 1009.63 1009.52 1008.50 1006.83 1005.08 1001.82 1000.03 999.42 999.19 999.38 998.99 998.96 1000.10 1000.89 1001.37 1001.79 1002.14 1002.70 1003.34 1003.91 1004.49 1005.08 1005.83 1006.45 1007.01 1007.36 1007.93 1008.76 1009.51 1010.39 1011.31 1011.92 1012.64 1013.37 1014.56 1015.76
1010.31 1010.53 1011.04 1010.29 1009.03 1008.63 1008.65 1007.76 1007.92 1008.24 1006.80 1006.22 1004.69 1002.12 999.61 999.00 998.47 998.99 999.16 999.03 999.75 999.98 1000.43 1000.94 1001.62 1002.43 1003.15 1003.28 1003.90 1003.84 1004.46 1005.23 1005.66 1006.45 1007.26 1007.91 1008.97 1009.91 1010.80 1011.44 1012.19 1012.95 1013.87 1014.95
1009.81 1010.60 1010.98 1010.46 1009.41 1008.59 1008.22 1007.49 1006.86 1006.75 1006.66 1005.68 1004.61 1001.77 999.54 999.37 999.12 998.65 999.13 999.28 999.36 999.58 1000.01 1000.46 1001.29 1001.77 1002.22 1002.38 1002.75 1003.20 1003.59 1003.82 1004.61 1005.51 1006.29 1007.27 1008.20 1009.07 1009.85 1010.77 1011.75 1012.68 1013.73 1014.67
1010.01 1009.84 1009.63 1008.35 1007.00 1006.67 1007.03 1007.08 1006.10 1006.61 1006.50 1004.70 1003.65 1001.14 999.18 998.55 998.29 998.26 998.64 998.82 998.89 999.11 999.68 1000.24 1000.44 1000.84 1001.24 1001.49 1001.70 1002.03 1002.39 1002.82 1003.67 1004.62 1005.56 1006.44 1007.28 1008.09 1009.12 1010.19 1011.24 1012.19 1013.14 1014.15
1009.39 1008.99 1008.81 1007.62 1007.18 1006.60 1006.48 1005.78 1005.37 1005.45 1005.54 1005.40 1002.01 1002.59 999.81 996.39 997.72 997.26 997.66 997.44 997.83 998.27 998.74 999.01 999.50 1000.03 1000.26 1000.56 1000.78 1000.93 1001.22 1001.95 1002.59 1003.67 1004.50 1005.14 1006.26 1007.36 1008.54 1009.40 1010.38 1011.71 1012.69 1013.54
1008.60 1007.50 1007.59 1006.32 1005.76 1005.65 1005.04 1004.09 1003.84 1003.85 1003.16 1002.41 1001.71 1000.79 999.37 997.88 997.14 996.92 995.63 996.30 997.57 997.50 997.61 998.08 998.43 998.77 999.07 999.46 999.62 999.82 1000.23 1000.88 1001.82 1002.69 1003.18 1004.07 1005.07 1006.47 1007.67 1008.49 1009.53 1010.80 1012.27 1013.05
1007.27 1006.68 1006.18 1004.44 1005.06 1004.61 1004.02 1002.90 1001.58 1001.15 1000.78 1000.82 1000.88 999.07 997.88 997.48 996.95 994.91 994.68 996.47 996.42 996.29 996.35 996.97 997.21 997.44 997.58 997.82 998.10 998.78 999.06 999.89 1000.96 1002.15 1003.16 1004.02 1004.92 1006.17 1007.90 1008.65 1009.49 1010.55 1011.82 1012.94
1006.92 1006.33 1004.39 1002.79 1003.45 1001.48 1000.03 1000.20 1000.49 1000.08 999.64 999.35 998.98 997.88 997.33 996.66 996.05 996.13 995.87 995.53 995.21 995.33 995.83 995.98 996.06 996.44 996.44 996.63 997.40 997.82 998.64 999.60 1000.55 1001.84 1003.11 1004.00 1004.66 1005.96 1007.87 1008.35 1008.94 1009.86 1011.26 1012.59
1005.46 1004.84 1003.79 1003.38 1002.17 1000.52 1000.49 999.84 999.54 999.57 998.72 999.21 999.71 999.49 998.73 997.88 997.16 996.00 997.46 997.42 996.35 995.52 995.47 995.27 994.99 995.32 995.60 996.13 996.55 997.33 998.40 999.22 1000.22 1001.43 1002.53 1003.24 1004.02 1005.22 1006.77 1007.41 1008.40 1009.67 1010.39 1010.97
1004.40 1004.22 1003.39 1002.34 1000.92 999.91 999.45 999.93 998.97 998.84 1000.12 1002.65 1002.18 1001.86 1001.67 1000.58 998.93 998.17 998.87 999.33 998.25 997.27 996.31 996.14 995.57 995.57 995.87 996.04 996.28 997.05 998.42 999.31 1000.02 1000.47 1001.26 1002.48 1003.70 1005.45 1006.55 1007.57 1008.79 1009.75 1010.88 1011.69
1005.76 1004.66 1003.47 1002.73 1001.69 1001.45 1002.68 1002.12 1001.01 1001.49 1004.20 1003.84 1003.89 1003.21 1003.40 1002.99 1002.46 1001.52 1000.82 999.89 999.32 998.82 997.93 997.00 996.94 997.28 996.85 996.93 997.11 997.80 998.53 998.82 999.64 1000.68 1001.57 1002.49 1003.52 1004.44 1005.46 1006.85 1008.18 1009.81 1010.82 1011.58
1008.04 1006.73 1005.38 1004.00 1002.72 1002.42 1004.38 1003.76 1005.50 1005.38 1004.91 1005.25 1004.10 1003.75 1004.02 1003.51 1002.38 1001.74 1000.79 999.75 999.12 998.31 997.73 997.56 997.58 997.70 998.65 999.26 998.90 998.26 998.44 998.89 999.62 1000.88 1002.06 1002.77 1003.44 1004.04 1005.10 1006.26 1007.81 1008.52 1010.05 1011.56
1009.90 1008.64 1008.77 1009.01 1005.99 1004.50 1005.67 1006.05 1005.96 1005.63 1004.83 1004.33 1004.72 1005.05 1005.08 1004.45 1002.20 1001.22 1000.62 1000.04 999.56 998.69 997.82 997.18 997.60 998.20 998.36 999.32 999.30 999.25 999.78 1000.31 1000.28 1001.32 1002.46 1003.52 1004.25 1004.62 1004.91 1005.48 1007.15 1008.85 1009.58 1010.43
1010.40 1009.41 1008.80 1008.25 1006.72 1006.19 1005.40 1005.86 1005.47 1005.71 1005.81 1005.86 1006.22 1005.98 1005.50 1003.67 1002.56 1001.79 1001.18 1000.41 999.76 998.80 998.29 997.52 997.64 997.78 997.63 998.12 998.20 998.74 999.16 999.50 1000.52 1001.66 1002.83 1003.25 1004.27 1004.92 1004.87 1005.31 1005.91 1007.18 1008.66 1009.81
1010.67 1009.94 1008.63 1007.58 1006.94 1006.00 1006.09 1005.73 1005.66 1005.64 1006.22 1006.48 1006.72 1006.00 1004.85 1003.65 1002.77 1002.50 1001.76 1000.85 999.94 999.11 998.49 997.72 997.16 997.05 996.85 996.60 997.08 997.71 998.18 998.70 999.34 1000.89 1002.47 1003.48 1004.36 1004.96 1004.99 1004.84 1005.07 1005.46 1006.75 1007.08
1010.13 1009.36 1008.77 1007.15 1007.27 1007.47 1006.48 1006.62 1007.08 1007.24 1007.76 1007.88 1007.27 1006.37 1005.64 1004.86 1004.12 1003.46 1002.41 1001.06 1000.14 998.81 998.47 997.56 996.98 996.77 996.40 996.37 996.09 996.43 997.00 997.64 998.75 998.90 999.54 999.98 1001.57 1003.41 1004.51 1005.01 1005.41 1005.89 1006.19 1007.03
Wind_Speed
6 6 12 23 16 11 5 6 7 10 8 7 14 17 21 18 8 16 17 15 14 17 22 11 16 17 18 16 17 19 18 16 14 9 9 6 9 5 4 5 8 8 7 6
3 12 18 7 8 12 12 18 19 13 15 10 10 19 14 13 17 13 18 18 19 19 9 9 11 15 20 20 19 19 20 19 15 12 10 5 5 3 3 4 6 7 8 7
19 8 17 14 9 8 17 14 18 15 7 6 8 12 10 13 16 14 15 18 17 22 13 10 11 18 17 19 22 21 21 19 17 12 8 4 4 3 4 4 5 5 8 7
12 15 14 8 8 15 23 9 12 9 2 15 7 22 8 8 16 14 19 16 20 20 9 9 11 14 19 19 18 19 19 19 16 16 14 15 10 10 8 8 6 6 9 8
11 3 6 13 23 10 19 4 9 3 5 6 6 8 4 9 10 12 15 16 21 13 11 11 17 21 19 17 19 18 19 18 17 18 17 14 11 8 4 4 9 10 7 8
13 2 4 8 1 5 3 2 2 3 2 13 10 11 10 8 15 8 16 15 18 11 10 9 9 9 12 10 13 14 18 18 16 18 18 19 16 10 7 9 10 8 7 7
5 14 11 6 3 1 3 5 4 4 1 14 12 12 22 8 8 15 17 18 19 8 8 9 11 12 11 14 15 14 16 17 16 18 17 17 17 16 15 12 11 11 8 7
3 14 11 8 20 10 10 15 9 10 7 14 4 11 9 15 16 11 12 15 8 9 9 10 12 12 13 16 15 16 17 17 17 18 18 15 15 11 10 12 9 10 10 10
5 9 2 1 0 10 6 8 12 3 2 3 13 15 10 6 10 10 16 10 8 9 9 11 9 10 11 13 16 18 16 16 15 18 16 16 14 17 14 13 10 9 8 7
8 11 4 1 2 3 3 0 2 4 5 8 16 8 16 6 17 17 10 11 10 8 8 8 9 11 10 10 13 13 13 17 14 15 15 14 14 15 13 12 14 11 9 8
3 6 7 3 9 9 2 4 5 3 5 14 17 17 8 8 7 11 12 10 9 9 10 10 9 8 10 9 12 13 13 15 15 15 16 16 14 12 10 12 13 13 11 11
3 1 3 12 7 4 6 12 17 14 19 4 5 16 4 12 9 5 3 5 6 8 9 8 9 8 11 14 12 16 15 16 17 15 14 15 11 11 13 12 11 11 13 11
6 4 7 8 11 2 7 7 10 7 2 17 14 23 5 13 11 8 8 8 7 6 7 7 7 11 13 12 12 13 14 18 15 14 14 14 13 14 14 13 12 12 11 10
10 11 14 19 20 4 4 11 12 10 11 18 22 30 36 32 30 26 22 12 11 10 9 9 8 8 10 12 13 14 15 15 14 14 14 15 16 16 13 12 13 13 12 12
12 12 19 27 30 27 31 32 31 26 21 14 29 20 30 38 23 24 20 17 11 10 8 10 10 9 11 11 11 11 12 12 13 15 15 16 14 14 13 14 14 12 12 11
10 17 16 21 27 31 34 34 33 33 37 30 34 35 35 37 35 30 33 25 17 19 19 15 11 12 13 12 14 12 12 13 14 16 17 15 16 16 17 16 15 14 12 11
17 10 13 25 23 25 22 34 38 36 28 21 26 35 37 35 32 36 32 17 17 20 18 10 13 16 14 11 11 12 13 9 13 12 11 13 14 15 14 14 14 13 13 11
15 13 10 15 12 23 18 18 29 34 32 30 31 33 33 31 32 25 21 21 22 17 11 11 10 12 11 9 9 6 9 11 12 10 11 13 14 14 14 14 15 14 12 12
22 21 12 12 14 13 6 9 15 19 28 25 25 25 25 27 27 27 15 23 22 20 16 15 12 11 8 9 8 8 9 10 12 13 14 15 16 17 17 16 14 11 12 12
13 17 18 15 21 22 14 12 20 19 19 25 15 18 20 20 7 6 22 18 20 21 13 10 7 5 6 7 8 11 10 11 14 16 16 15 15 15 15 14 14 11 10 10
9 9 18 18 20 8 12 17 14 8 12 24 12 11 14 10 6 14 17 20 15 10 11 9 8 8 6 4 6 8 10 14 8 8 11 13 14 16 15 15 12 11 10 10
5 4 9 8 15 24 24 8 10 15 19 19 14 19 16 13 13 13 17 19 21 18 15 8 7 4 5 5 4 5 9 6 9 10 11 12 13 12 13 16 13 15 13 11
8 4 6 7 13 26 4 17 17 10 11 13 13 16 17 21 19 17 16 17 17 19 15 7 3 6 4 4 2 3 1 5 9 10 10 9 11 11 14 16 15 11 11 10
7 8 7 15 3 24 24 13 11 10 13 12 10 13 13 18 18 19 16 16 15 14 13 9 4 7 9 9 11 11 10 11 11 11 10 11 12 11 12 11 12 12 12 10
11 13 9 17 19 18 15 16 15 17 16 11 12 16 18 14 16 17 19 18 16 15 13 8 11 13 15 7 11 10 13 14 15 13 11 11 10 12 12 11 12 13 12 14
14 18 13 19 21 13 19 15 14 10 12 15 16 16 17 17 19 20 19 19 17 16 14 14 11 11 15 9 11 13 15 18 17 17 17 18 16 14 12 11 10 16 17 21
Wind_Direction
207 148 208 224 209 232 231 261 239 266 250 178 228 235 246 260 217 244 255 258 248 239 250 207 203 189 179 176 169 173 167 170 165 169 172 174 188 181 183 179 167 163 162 168
252 220 227 238 204 230 244 259 268 278 264 200 246 245 243 255 252 221 236 245 247 252 253 220 191 181 179 175 173 172 175 173 178 177 179 168 149 181 165 174 170 171 166 171
225 227 220 224 231 263 243 243 259 264 301 248 298 265 231 248 248 249 238 243 255 247 239 223 180 187 175 176 176 177 178 177 179 171 155 108 104 89 158 191 177 188 174 172
248 241 237 202 222 208 264 224 243 242 231 268 148 290 233 242 248 246 251 245 241 248 222 205 183 181 185 186 176 175 176 177 178 169 175 184 192 190 197 184 177 173 179 178
231 234 220 234 234 189 257 222 238 239 239 314 173 285 222 186 241 251 248 245 253 240 208 198 189 190 190 177 176 175 175 178 178 179 184 190 200 194 150 145 167 181 182 181
247 140 231 214 123 188 123 75 358 31 80 265 172 200 250 191 218 244 246 249 256 238 202 201 190 166 173 164 171 173 176 183 180 181 188 195 193 178 164 178 183 186 184 186
300 234 212 152 179 225 154 98 298 318 349 250 186 212 254 292 249 219 231 236 239 177 170 166 164 173 167 171 175 177 181 188 186 188 192 194 196 187 191 184 187 181 181 189
243 293 159 185 207 193 195 199 181 204 227 277 133 246 255 214 230 229 237 228 194 183 191 183 182 180 180 181 178 181 186 190 186 190 196 195 194 192 196 189 184 189 190 189
230 257 300 90 277 167 188 184 228 303 126 32 262 270 291 241 248 249 239 236 206 206 192 196 188 184 179 178 185 190 190 195 193 195 193 197 192 195 196 188 182 182 175 173
230 257 196 168 238 267 159 102 111 238 208 245 261 259 264 272 269 258 265 213 219 206 207 213 202 189 186 188 190 193 197 198 194 195 201 199 196 200 191 174 183 176 168 158
323 267 257 157 204 181 89 248 234 292 191 249 263 271 217 241 247 257 245 218 195 212 216 210 212 194 191 189 184 188 192 197 203 198 195 196 196 190 176 183 185 174 157 157
155 260 295 249 297 273 254 228 227 239 250 240 268 262 168 252 231 186 309 289 229 215 213 210 208 181 194 201 196 198 200 199 207 201 194 197 181 172 181 186 175 159 161 159
164 159 240 289 291 231 217 221 230 255 287 248 250 259 133 255 272 308 288 278 272 241 247 225 201 203 211 208 201 204 201 208 201 192 189 186 183 181 186 179 166 160 153 156
177 196 230 244 235 191 236 259 241 231 252 259 249 265 277 264 263 272 272 237 233 243 226 224 224 215 218 214 209 209 211 203 191 188 187 188 188 186 177 164 160 161 161 157
183 230 220 235 241 243 250 254 255 249 238 236 261 251 264 270 269 273 274 259 254 253 231 221 219 222 229 223 220 214 209 191 181 186 189 192 180 174 162 160 160 158 161 161
192 242 231 231 226 233 244 245 251 253 254 247 245 257 254 268 275 272 263 261 263 254 247 245 239 232 240 217 219 211 202 187 179 190 194 177 167 165 172 167 160 156 160 156
217 208 218 247 232 242 244 238 239 245 246 244 242 243 257 265 261 260 273 281 261 255 253 231 237 235 233 231 209 203 205 170 181 187 182 172 167 165 170 161 157 161 162 156
276 264 249 248 234 230 234 234 237 244 247 248 245 248 249 257 271 272 276 267 270 265 247 239 237 233 221 219 209 158 149 163 170 169 166 165 161 160 165 162 167 160 158 160
228 239 247 258 249 273 343 235 216 218 243 258 275 266 272 276 271 280 323 338 302 288 272 256 243 229 229 206 180 157 155 158 159 170 170 167 164 163 171 172 167 161 157 153
259 246 246 246 254 257 264 274 269 247 260 1 10 4 353 343 303 311 346 341 337 334 313 310 277 230 204 208 157 148 158 160 184 183 176 165 161 164 165 163 164 162 163 156
302 284 253 259 269 266 13 359 303 238 1 335 326 1 344 325 285 300 315 323 329 321 330 340 350 318 298 145 144 152 158 192 176 153 156 161 166 164 162 155 155 151 150 147
278 296 285 314 261 253 12 353 357 324 301 305 316 327 311 292 287 284 291 305 311 315 324 332 322 311 345 335 317 166 192 138 130 147 161 167 164 161 153 153 152 152 151 151
282 344 321 321 314 310 314 310 301 303 304 317 310 316 321 308 315 315 303 308 303 303 308 308 222 284 236 211 219 210 12 134 137 146 160 163 160 161 161 155 151 151 153 157
274 282 291 317 281 296 302 303 304 15 351 334 321 310 300 310 313 306 305 304 303 301 287 282 237 242 233 208 194 211 172 156 153 161 166 158 167 167 164 161 159 158 164 162
263 297 274 282 280 290 291 312 339 330 317 322 313 305 300 305 302 301 299 298 292 289 288 272 278 274 268 204 206 189 172 162 162 162 166 169 176 179 172 173 169 165 175 173
259 258 266 274 291 302 297 317 317 351 336 319 306 307 309 310 306 305 297 295 295 297 291 290 282 271 270 245 218 198 186 180 180 177 178 179 174 178 179 168 159 175 168 169